Regional Weather Roundup
Issued by NWS Charleston, SC

Current Version | Previous Version | Graphics & Text | Print | Product List | Glossary On
Versions: 1 2 3 4 5 6 7 8 9 10 11 12 13 14 15 16 17 18 19 20 21 22 23 24 25 26 27 28 29 30 31 32 33 34 35 36 37 38 39 40 41 42 43 44 45 46 47 48 49 50
000
ASUS42 KCHS 222012
RWRCHS

REGIONAL WEATHER ROUNDUP
NATIONAL WEATHER SERVICE CHARLESTON SC
400 PM EDT WED MAR 22 2017

NOTE: "FAIR" INDICATES FEW OR NO CLOUDS BELOW 12,000 FEET WITH NO
SIGNIFICANT WEATHER AND/OR OBSTRUCTIONS TO VISIBILITY.

NOT ALL STATIONS ARE QUALITY CONTROLLED. USE DATA WITH CAUTION...
ESPECIALLY DEWPOINT OBSERVATIONS.

SCZ027-030-031-034>040-042>050-222100-
...SOUTHEAST SOUTH CAROLINA...

CITY           SKY/WX    TMP DP  RH WIND       PRES   REMARKS
N CHARLESTON   MOSUNNY   76  42  29 N17       30.08R
WATERFRONT PRK   N/A     66  56  70 E14       30.06S
JOHNS ISLAND   FAIR      68  54  60 E16       30.09R
PINOPOLIS        N/A     64  52  63 N7        30.01R
MONCKS CORNER  FAIR      70  41  35 N10       30.10R
SUMMERVILLE    FAIR      72  43  35 N7        30.10S
BEAUFORT MCAS  MOSUNNY   79  46  31 NE10      30.07S
BEAUFORT ARPT  FAIR      73  52  46 E10       30.07S
HILTON HEAD IS MOSUNNY   66  55  68 E5        30.09R
WALTERBORO     CLEAR     73  45  35 N12G18    30.10S
ALLENDALE      FAIR      73  45  35 VRB3G12   30.08S

...SOUTHERN MIDLANDS AND PEE DEE...

CITY           SKY/WX    TMP DP  RH WIND       PRES   REMARKS
GEORGETOWN     FAIR      68  52  56 E14       30.11R
KINGSTREE      FAIR      68  34  28 N8        30.12R
ORANGEBURG     MOSUNNY   73  42  32 E12       30.11S
BARNWELL       FAIR      75  46  35 NE9G17    30.10S
AIKEN          FAIR      68  43  40 N8        30.16R
MANNING        FAIR      70  41  35 N16       30.11S
COLUMBIA       CLOUDY    71  37  28 N12       30.12R
SUMTER         CLOUDY    68  30  24 N16       30.12R
FLORENCE       CLOUDY    67  20  16 N14G23    30.14R
MYRTLE BEACH   PTSUNNY   63  54  72 SE16      30.12R
N MYRTLE BEACH MOSUNNY   69  45  41 NE10      30.10R

$$

GAZ063-065-086>088-099>101-113>116-118-119-134>141-150-222100-
...SOUTHEAST GEORGIA...

CITY           SKY/WX    TMP DP  RH WIND       PRES   REMARKS
SAVANNAH ARPT  PTSUNNY   81  50  33 NE9       30.06S
HUNTER AAF     PTSUNNY   74  60  60 E13       30.04R
FORT STEWART   CLOUDY    80  56  43 N10G18    30.03S
STATESBORO     PTSUNNY   77  57  49 NE6       30.07F
SYLVANIA       CLOUDY   N/A N/A N/A NE6       30.08F
CLAXTON        FAIR      78  59  51 N9        30.06F

...CSRA...CENTRAL AND FAR SOUTHEAST GEORGIA...

CITY           SKY/WX    TMP DP  RH WIND       PRES   REMARKS
THOMSON        CLOUDY    73  55  53 MISG      30.15F
AUGUSTA-BUSH   MOSUNNY   75  49  39 VRB7      30.09F
AUGUSTA-DANIEL CLOUDY    74  46  36 NE10      30.11S
SWAINSBORO     FAIR      75  55  50 N7        30.08S
VIDALIA        PTSUNNY   81  57  44 NE10G16   30.06S
EASTMAN        FAIR      82  27  13 N5        30.07F
HAZLEHURST     FAIR      84  55  36 N12G17    30.03F
ALMA           MOSUNNY   85  53  33 N10G16    30.02F
WAYCROSS       MOSUNNY   87  58  36 N12       30.02S
JESUP          MOCLDY    84  50  30 NE14      30.03S
BAXLEY         PTSUNNY   84  59  42 NE10      30.03F
BRUNSWICK      SUNNY     73  63  68 E21       30.06R
SAINT SIMONS   SUNNY     70  59  68 E16G23    30.06R

$$

SCZ027-028-034-036>038-045-046-048>050-GAZ119-141-222100-
...LAKE AND SUPPLEMENTAL COASTAL OBSERVATIONS...

STATION/POSITION TIME  TEMP    WIND        PRES    WAVE   SWELL
                       AIR SEA DIR/SP/G            HT/PER HT/PER/DIR
                 (UTC) (F)     (DEG/KT/KT) (MB)    (FT/S) (FT/S/D)
WINYAH BAY       NOT AVBL
LAKE MURRAY      1920   68     360/  4/  8 1019.6S
ACE BASIN NERRS  NOT AVBL
FORT PULASKI     1948   64 60  100/ 15/ 18 1018.6R
SAPELO ISLAND    1900   74      80/ 15     1017.0

$$

ANZ835-935-AMZ111-154-330-350-352-354-370-450-454-472-222100-
...C-MAN AND BUOY OBSERVATIONS...

STATION/POSITION TIME  TEMP    WIND        PRES    WAVE   SWELL
                       AIR SEA DIR/SP/G            HT/PER HT/PER/DIR
                 (UTC) (F)     (DEG/KT/KT) (MB)    (FT/S) (FT/S/D)
BUOY 41004       1950   63 66   40/ 23/ 27 1018.1R   4/ 5   2/130/11
BUOY 41008       1950   64 63   70/ 16/ 19 1017.7R   2/11   2/140/11
FOLLY BEACH CMAN 1900   62      80/ 16/ 17 1019.1R
CAPERS NEARSHORE 1908   61      80/ 16/ 21 1018.4R
FRIPP NEARSHORE  1908   63 60   90/  8/ 10 1018.2R


STATION/POSITION TIME  TEMP    WIND        PRES    WAVE   SWELL
                       AIR SEA DIR/SP/G            HT/PER HT/PER/DIR
                 (UTC) (F)     (DEG/KT/KT) (MB)    (FT/S) (FT/S/D)
5E ST. MARYS GA  1930      66                N/A     2/13   2/100/13
FRYING PAN BUOY  1950   61 66   30/ 19/ 27 1019.5R   6/ 6   2/150/10
BUOY 41025       1950   49 72   10/ 29/ 35 1021.0R  10/ 8   3/ 60/11
CAPE LOOKOUT NC  1900   54      40/ 25/ 28 1020.1R
BUOY 41002       1950   69 76  360/ 27/ 31 1014.4R   9/ 8   3/ 40/12
BUOY 41010       NOT AVBL
ST AUGUSTINE FL  2000   67 66   70/ 12/ 14 1017.3F


$$



USA.gov is the U.S. government's official web portal to all federal, state and local government web resources and services.